Location: Unspecified
(48.7670°N, 0.0000°E)
Time: 06:11:49
(UTC+00:00)

A-11 Canister half - Pass Details

Date: 03 July 2019
Orbit: 1526 x 1683 km, 47.3° (Epoch: 17 July)

Event Time Altitude Azimuth Distance (km) Brightness Sun altitude
Exits shadow 02:55:49 - 246° (WSW) 4,263 10.8 -8.7°
Reaches altitude 10° 02:57:17 10° 245° (WSW) 3,796 10.5 -8.5°
Maximum altitude 03:06:49 73° 164° (SSE) 1,614 9.1 -7.5°
Drops below altitude 10° 03:16:07 10° 81° (E) 3,705 11.9 -6.5°
Sets 03:19:09 0° 80° (E) 4,682 12.5 -6.1°
